Torna al catalogo

STARLINK-4153

AttivoComunicazioniVLEO
NORAD 53037·PAYLOAD·🇺🇸 United States

Lanciato Jul 7, 2022 da Cape Canaveral Space Force Station

Loading…

Prossimi Passaggi (prossime 24 ore)

TLE

AggiornatoSource: CelesTrak SupGP

Epoca: Sep 15, 2026, 02:32 UTC

1 53037C 22076BD  26258.10604167  .00675300  00000+0  20177-1 0  2589
2 53037  53.1602 299.6233 0001292  86.8822 205.4186 15.33700934    11

Traccia STARLINK-4153 in tempo reale con AllMySat

Download on the App Store